[[{"header":{"parameterUnit":"m.s-1","parameterCategory":2,"la1":30.2991,"la2":30.254,"lo1":-89.0895,"lo2":-89.0444,"dy":0.0017,"dx":0.0017,"nx":28,"ny":28,"refTime":"2025-07-07T09:00:00:Z","depth":"0","parameterNumber":2,"parameterNumberName":"U-component_of_CURRENTS"},"data":[0,0,0,0,0,0,0,0,0,0,0,0,0,0,0,0,0,0,0,0,0,0,0,0,0,0,0,0,0,0,0,0,0,0,0,0,0,0,0,0,0,0,0,0,0,0,0,0,0,0,0,0,0,0,0,0,0,0,0.2725,0.2725,0,0.2746,0.2746,0.2746,0.2721,0.272,0.2719,0.2718,0.2782,0.2784,0.2787,0,0,0,0,0,0,0,0,0,0,0,0,0,0.2767,0.2766,0.2725,0.2725,0.2725,0.2745,0.2746,0.2747,0.2721,0.272,0.2718,0.2717,0.2781,0.2784,0.2787,0,0,0,0,0,0,0,0,0,0,0,0,0,0.2767,0.2766,0.2725,0.2713,0.2712,0.2745,0.2746,0.2747,0.2722,0.272,0.2718,0.2716,0.278,0.2784,0.2788,0.2849,0,0,0.2801,0.2802,0,0,0,0,0,0,0,0,0.2767,0.2765,0.2715,0.2714,0.2712,0.2726,0.2784,0.2782,0.2722,0.2721,0.2717,0.2715,0.2767,0.2772,0.2783,0.2852,0.2855,0.2801,0.2804,0.2805,0.2807,0,0,0,0,0,0,0,0.2766,0.2765,0.2736,0.2715,0.2713,0.2742,0.2739,0.2784,0.2756,0.2721,0.2718,0.2717,0.2767,0.2779,0.2784,0.2856,0.2801,0.2805,0.2807,0.2809,0.2989,0.2991,0,0,0,0,0,0,0.2755,0.2764,0.2735,0.2736,0.2733,0.2742,0.2739,0.2726,0.2755,0.2756,0.2718,0.2715,0.2773,0.2779,0.2787,0.2882,0.2805,0.2809,0.2812,0.2987,0.299,0.2992,0,0,0,0,0,0,0.2756,0.2752,0.2734,0.275,0.2749,0.2742,0.2728,0.2727,0.2733,0.2752,0.2754,0.2723,0.2771,0.2781,0.2838,0.2883,0.2811,0.2815,0.2984,0.2988,0.2991,0.306,0,0,0,0,0,0,0.2757,0.2752,0.2749,0.2748,0.2747,0.277,0.273,0.2729,0.2733,0.273,0.2758,0.2762,0.2771,0.2832,0.2842,0.2888,0.2818,0.2981,0.2986,0.299,0.3054,0.3065,0.3074,0,0,0,0,0,0.2758,0.2764,0.2749,0.2746,0.274,0.2771,0.2775,0.2766,0.2735,0.276,0.2772,0.276,0.2865,0.2837,0.2849,0.2897,0.2979,0.2985,0.299,0.305,0.3063,0.3074,0,0,0,0,0,0,0.278,0.2761,0.2745,0.2742,0.276,0.2766,0.2785,0.277,0.2798,0.279,0.2795,0.2804,0.2876,0.2877,0.2846,0.2961,0.2919,0.2927,0.2961,0.2974,0.2983,0.2994,0.2822,0,0,0,0,0,0.2783,0.2781,0.2776,0.278,0.2788,0.2785,0.2795,0.2789,0.2806,0.2814,0.2834,0.2861,0.2911,0.293,0.2977,0.3039,0.3059,0.3075,0.3085,0.3093,0.3111,0.3193,0.3212,0.3009,0.3009,0.3009,0,0,0.2788,0.2782,0.2778,0.2786,0.2795,0.2823,0.2789,0.281,0.2837,0.2822,0.2876,0.2906,0.2938,0.3013,0.3043,0.3014,0.3159,0.31,0.3106,0.312,0.32,0.322,0.3237,0.3012,0.3012,0.3011,0,0,0.2816,0.28,0.2812,0.2833,0.2849,0.2856,0.2861,0.2876,0.2889,0.2942,0.2945,0.3001,0.3058,0.3102,0.3125,0.3218,0.3217,0.3225,0.3277,0.3356,0.3373,0.3389,0.3427,0.3445,0.3219,0.3219,0.3219,0,0.2822,0.283,0.2828,0.2858,0.2873,0.287,0.2899,0.2927,0.2961,0.2991,0.2967,0.3084,0.3106,0.3207,0.3236,0.3243,0.3271,0.3226,0.3369,0.3385,0.34,0.3435,0.3455,0.3223,0.3222,0.3222,0.3222,0,0.2865,0.2874,0.2893,0.2918,0.2947,0.2975,0.3002,0.3042,0.3046,0.3072,0.3168,0.3208,0.3274,0.3292,0.3292,0.3413,0.3394,0.338,0.3337,0.3424,0.3456,0.3475,0.3228,0.3227,0.3226,0.3225,0,0,0.2852,0.2907,0.2909,0.293,0.2974,0.3,0.3065,0.3126,0.3179,0.3221,0.3302,0.3382,0.3398,0.3429,0.3445,0.3506,0.3626,0.3487,0.3489,0.352,0.3782,0.3578,0.3579,0.3639,0.3643,0.3646,0.3757,0,0.2878,0.2935,0.2959,0.3016,0.3042,0.3076,0.3144,0.3203,0.3256,0.3347,0.3397,0.3488,0.3452,0.3497,0.3556,0.3629,0.3682,0.3596,0.3697,0.37,0.3505,0.3597,0.3414,0.3481,0.3775,0.3779,0.3781,0,0.2892,0.2933,0.2987,0.3058,0.3075,0.3118,0.3218,0.3283,0.3408,0.3454,0.3542,0.3591,0.3707,0.3656,0.3803,0.3751,0.3775,0.3806,0.3811,0.3612,0.3532,0.3446,0.3504,0.3452,0.381,0.3808,0.3805,0,0.2866,0.294,0.2982,0.3005,0.3097,0.3138,0.3197,0.3313,0.339,0.3539,0.3612,0.3733,0.3804,0.3881,0.3913,0.3888,0.4052,0.4023,0.3857,0.3842,0.3701,0.3664,0.3715,0.4126,0.4126,0.4126,0.4125,0,0.2864,0.2891,0.2973,0.2998,0.3069,0.3136,0.324,0.3318,0.3461,0.356,0.3668,0.3755,0.3868,0.3953,0.3978,0.396,0.4101,0.3888,0.387,0.3713,0.3678,0.3632,0.3625,0.413,0.4129,0.4128,0.4127,0,0.281,0.2864,0.2915,0.3017,0.3052,0.3103,0.3247,0.3338,0.3466,0.3604,0.3659,0.3812,0.3889,0.3957,0.4076,0.4011,0.3917,0.3993,0.3768,0.3717,0.3446,0.3449,0.3296,0.3219,0.384,0.3836,0.3832,0,0.2781,0.2806,0.2911,0.2958,0.3001,0.3097,0.3179,0.332,0.3417,0.3613,0.3677,0.3795,0.3815,0.3885,0.3823,0.3808,0.376,0.3625,0.3525,0.3416,0.3412,0.3266,0.3205,0.3385,0.3378,0.3372,0.3368,0,0.2748,0.2786,0.2849,0.2939,0.3017,0.309,0.3208,0.3269,0.3436,0.3512,0.3604,0.3634,0.3661,0.3532,0.348,0.3457,0.3426,0.3498,0.3491,0.3136,0.2886,0.2805,0.3313,0.3317,0.3322,0.3326,0.3329,0.3331,0.2732,0.2766,0.2864,0.2927,0.3002,0.3045,0.3045,0.3151,0.3211,0.3245,0.34,0.3334,0.3325,0.3184,0.3145,0.2971,0.3003,0.2889,0.293,0.2813,0.2633,0.2976,0.2873,0.2875,0.2878,0.2879,0.2881,0,0.2724,0.2782,0.2852,0.2906,0.2911,0.2974,0.3034,0.2983,0.2933,0.2991,0.2976,0.2899,0.2753,0.2746,0.2602,0.2473,0.2376,0.2432,0.2278,0.2275,0.2695,0.2568,0.2265,0.2265,0.2265,0.2265,0.2265,0.2265,0.2741,0.2798,0.2818,0.2796,0.2801,0.2729,0.27,0.2621,0.2605,0.2458,0.2372,0.2384,0.2484,0.2418,0.227,0.2208,0.2101,0.1902,0.1997,0.2397,0.2446,0.2492,0.2374,0.2035,0.2034,0.1442,0.1438,0.1435]},{"header":{"parameterUnit":"m.s-1","parameterCategory":2,"la1":30.2991,"la2":30.254,"lo1":-89.0895,"lo2":-89.0444,"dy":0.0017,"dx":0.0017,"nx":28,"ny":28,"refTime":"2025-07-07T09:00:00:Z","depth":"0","parameterNumber":3,"parameterNumberName":"V-component_of_CURRENTS"},"data":[0,0,0,0,0,0,0,0,0,0,0,0,0,0,0,0,0,0,0,0,0,0,0,0,0,0,0,0,0,0,0,0,0,0,0,0,0,0,0,0,0,0,0,0,0,0,0,0,0,0,0,0,0,0,0,0,0,0,0.0272,0.0272,0,0.0269,0.0269,0.0269,0.025,0.025,0.0249,0.0249,0.0255,0.0255,0.0256,0,0,0,0,0,0,0,0,0,0,0,0,0,0.0258,0.0258,0.0272,0.0272,0.0272,0.0269,0.0269,0.0269,0.025,0.025,0.0249,0.0249,0.0255,0.0255,0.0256,0,0,0,0,0,0,0,0,0,0,0,0,0,0.026,0.0258,0.0272,0.0262,0.0262,0.0269,0.0269,0.0269,0.025,0.025,0.0249,0.0248,0.0254,0.0255,0.0256,0.0273,0,0,0.0258,0.0259,0,0,0,0,0,0,0,0,0.026,0.026,0.0264,0.0263,0.0262,0.026,0.0266,0.0271,0.025,0.0254,0.0249,0.0248,0.0258,0.0259,0.0258,0.0273,0.0273,0.0258,0.0259,0.0259,0.0259,0,0,0,0,0,0,0,0.0259,0.026,0.027,0.0264,0.0263,0.0258,0.0257,0.0267,0.0259,0.0254,0.0252,0.0253,0.0257,0.0258,0.0258,0.0273,0.0258,0.0259,0.026,0.026,0.0319,0.032,0,0,0,0,0,0,0.0262,0.026,0.027,0.027,0.026,0.0258,0.0258,0.0261,0.0259,0.0258,0.0254,0.0252,0.0257,0.0257,0.0259,0.0307,0.0259,0.026,0.026,0.0317,0.0319,0.032,0,0,0,0,0,0,0.0262,0.0263,0.027,0.0265,0.0266,0.0259,0.0263,0.0261,0.0262,0.0259,0.0258,0.0257,0.0256,0.0257,0.0276,0.0306,0.026,0.0261,0.0316,0.0318,0.0319,0.0387,0,0,0,0,0,0,0.0261,0.0263,0.0265,0.0266,0.0266,0.0284,0.0263,0.0261,0.0264,0.0262,0.0262,0.0261,0.0256,0.0275,0.0277,0.0307,0.0262,0.0315,0.0317,0.0319,0.0383,0.0391,0.0397,0,0,0,0,0,0.0261,0.0272,0.0266,0.0267,0.027,0.0284,0.0285,0.0277,0.0265,0.0274,0.0274,0.0261,0.0289,0.0277,0.0279,0.0309,0.0314,0.0316,0.0319,0.038,0.0389,0.0397,0,0,0,0,0,0,0.0263,0.0271,0.0264,0.0275,0.0282,0.0282,0.029,0.0282,0.0288,0.0286,0.0277,0.0278,0.0305,0.0297,0.0283,0.0331,0.0299,0.0302,0.0345,0.0354,0.036,0.0383,0.0262,0,0,0,0,0,0.0266,0.0278,0.0281,0.029,0.0297,0.0293,0.0297,0.0293,0.0298,0.0299,0.0301,0.0304,0.0317,0.0326,0.0333,0.0362,0.0352,0.0381,0.0388,0.0394,0.0413,0.0424,0.0434,0.0328,0.0328,0.0328,0,0,0.0268,0.0275,0.0279,0.0292,0.0297,0.0323,0.0295,0.0308,0.0332,0.03,0.0336,0.0329,0.0329,0.0361,0.0373,0.0358,0.0415,0.0397,0.0402,0.0419,0.0428,0.0438,0.0447,0.033,0.0329,0.0329,0,0,0.029,0.0287,0.031,0.0324,0.0338,0.0342,0.0348,0.0356,0.0363,0.0389,0.0376,0.0391,0.0405,0.042,0.0426,0.0476,0.0449,0.0471,0.0529,0.0539,0.0548,0.0556,0.0543,0.0549,0.0476,0.0477,0.0477,0,0.0292,0.0324,0.0318,0.0351,0.0372,0.0356,0.0394,0.0401,0.0414,0.0435,0.0409,0.045,0.044,0.0495,0.0506,0.0494,0.0483,0.0498,0.0549,0.0557,0.0564,0.0548,0.0554,0.048,0.048,0.0479,0.0479,0,0.0342,0.0366,0.0385,0.0423,0.0442,0.0472,0.0486,0.0507,0.0507,0.0516,0.0561,0.055,0.0579,0.0572,0.0552,0.0605,0.0575,0.0554,0.053,0.0579,0.0559,0.0564,0.0485,0.0484,0.0483,0.0482,0,0,0.0354,0.0409,0.0416,0.0455,0.0487,0.0515,0.0558,0.0603,0.0652,0.0647,0.0714,0.0713,0.0704,0.071,0.0691,0.0693,0.0715,0.0646,0.0645,0.0636,0.0722,0.0667,0.0666,0.0701,0.0702,0.0703,0.0683,0,0.0399,0.0474,0.0489,0.0567,0.0613,0.0624,0.0677,0.0711,0.0734,0.0793,0.0782,0.0833,0.0759,0.0784,0.0773,0.0744,0.0734,0.0722,0.0674,0.0673,0.0621,0.0673,0.068,0.0659,0.0687,0.0688,0.0689,0,0.045,0.0498,0.0578,0.0663,0.0686,0.0728,0.082,0.0867,0.0928,0.095,0.098,0.0974,0.0995,0.0921,0.0884,0.0878,0.0807,0.0763,0.0761,0.0696,0.0629,0.0618,0.0667,0.0619,0.0696,0.0695,0.0695,0,0.0482,0.0565,0.0635,0.0662,0.0749,0.0795,0.0846,0.0915,0.0994,0.1062,0.1126,0.112,0.1152,0.107,0.096,0.0932,0.0905,0.0854,0.0734,0.0728,0.0719,0.071,0.0724,0.0824,0.0824,0.0824,0.0824,0,0.0536,0.0594,0.0657,0.0703,0.0809,0.0847,0.097,0.1018,0.1125,0.1246,0.1217,0.1305,0.1192,0.1158,0.1023,0.09,0.095,0.0763,0.0732,0.0739,0.0732,0.0677,0.0634,0.0823,0.0823,0.0824,0.0824,0,0.0569,0.0605,0.0699,0.0793,0.0829,0.091,0.1059,0.1165,0.1236,0.1398,0.1435,0.1467,0.1412,0.127,0.1148,0.1001,0.0836,0.081,0.0811,0.0781,0.0605,0.0566,0.0532,0.0513,0.0684,0.0683,0.0682,0,0.0595,0.0644,0.0761,0.0836,0.0885,0.1005,0.1111,0.1214,0.1341,0.1503,0.1603,0.1597,0.1605,0.1389,0.1134,0.0894,0.0816,0.0739,0.0682,0.0617,0.0552,0.0528,0.0514,0.069,0.0689,0.0688,0.0687,0,0.0658,0.0693,0.0777,0.0919,0.1034,0.1173,0.1326,0.1439,0.1588,0.1706,0.1848,0.186,0.1656,0.1429,0.1092,0.0917,0.0714,0.0714,0.0671,0.0583,0.054,0.05,0.0662,0.0681,0.0681,0.0682,0.0682,0.0682,0.0708,0.0779,0.0889,0.1024,0.1159,0.1331,0.1449,0.1613,0.1796,0.1965,0.1983,0.1991,0.1703,0.124,0.1013,0.0645,0.0644,0.0535,0.0499,0.0486,0.0459,0.0588,0.0553,0.0553,0.0553,0.0553,0.0553,0,0.0782,0.0867,0.0996,0.1161,0.1306,0.1366,0.1594,0.1711,0.19,0.2021,0.2092,0.1951,0.1588,0.1227,0.0731,0.0493,0.0423,0.0384,0.0381,0.038,0.0524,0.0516,0.0446,0.0446,0.0446,0.0446,0.0446,0.0446,0.0831,0.0961,0.1021,0.1251,0.1366,0.1554,0.1676,0.184,0.1957,0.2065,0.2062,0.2051,0.1853,0.101,0.0512,0.0389,0.029,0.0222,0.0186,0.0305,0.0318,0.033,0.0317,0.0206,0.0205,0.0087,0.0086,0.0084]}],[{"header":{"parameterUnit":"m.s-1","parameterCategory":2,"la1":30.2991,"la2":30.254,"lo1":-89.0895,"lo2":-89.0444,"dy":0.0017,"dx":0.0017,"nx":28,"ny":28,"refTime":"2025-07-07T09:00:00:Z","depth":"2","parameterNumber":2,"parameterNumberName":"U-component_of_CURRENTS"},"data":[0,0,0,0,0,0,0,0,0,0,0,0,0,0,0,0,0,0,0,0,0,0,0,0,0,0,0,0,0,0,0,0,0,0,0,0,0,0,0,0,0,0,0,0,0,0,0,0,0,0,0,0,0,0,0,0,0,0,0.2497,0.2497,0,0.2509,0.251,0.251,0.2496,0.2496,0.2495,0.2494,0.2531,0.2533,0.2534,0,0,0,0,0,0,0,0,0,0,0,0,0,0.2532,0.2531,0.2497,0.2497,0.2497,0.2509,0.251,0.251,0.2496,0.2496,0.2495,0.2494,0.2531,0.2533,0.2535,0,0,0,0,0,0,0,0,0,0,0,0,0,0.2528,0.2531,0.2497,0.2491,0.2491,0.2509,0.251,0.251,0.2497,0.2496,0.2495,0.2494,0.253,0.2533,0.2535,0.2567,0,0,0.2542,0.2543,0,0,0,0,0,0,0,0,0.2529,0.2527,0.2492,0.2492,0.2491,0.2499,0.2535,0.253,0.2497,0.2495,0.2494,0.2493,0.2523,0.2526,0.2531,0.2569,0.2571,0.2542,0.2544,0.2545,0.2545,0,0,0,0,0,0,0,0.2529,0.2527,0.2503,0.2492,0.2492,0.2512,0.251,0.2535,0.2516,0.2496,0.2494,0.2494,0.2523,0.2529,0.2532,0.2571,0.2542,0.2544,0.2546,0.2547,0.2696,0.2698,0,0,0,0,0,0,0.2522,0.2527,0.2503,0.2503,0.2507,0.2511,0.2509,0.2499,0.2515,0.2516,0.2495,0.2494,0.2526,0.2529,0.2533,0.261,0.2545,0.2547,0.2548,0.2693,0.2696,0.2699,0,0,0,0,0,0,0.2523,0.252,0.2502,0.2515,0.2514,0.2511,0.25,0.2499,0.2509,0.2514,0.2515,0.2505,0.2525,0.253,0.2579,0.2609,0.2548,0.255,0.269,0.2694,0.2698,0.2739,0,0,0,0,0,0,0.2524,0.252,0.2519,0.2514,0.2513,0.2527,0.2501,0.25,0.251,0.2508,0.2523,0.2525,0.2525,0.2576,0.2582,0.2611,0.2552,0.2687,0.2692,0.2697,0.2734,0.2743,0.2751,0,0,0,0,0,0.2525,0.2525,0.2519,0.2517,0.2509,0.2528,0.253,0.2526,0.2511,0.2529,0.2545,0.2525,0.261,0.258,0.2586,0.2617,0.2685,0.2691,0.2696,0.273,0.2742,0.2751,0,0,0,0,0,0,0.254,0.2523,0.2517,0.2511,0.2526,0.2525,0.254,0.2534,0.2559,0.256,0.2557,0.2563,0.2617,0.2621,0.2588,0.2679,0.2645,0.2652,0.2669,0.268,0.2688,0.2706,0.2554,0,0,0,0,0,0.2543,0.2538,0.2535,0.2536,0.2544,0.2545,0.2553,0.2552,0.2567,0.2576,0.259,0.2614,0.2647,0.2664,0.2694,0.2744,0.2763,0.2771,0.278,0.2787,0.2809,0.2874,0.289,0.2718,0.2718,0.2718,0,0,0.2548,0.2541,0.2537,0.254,0.2549,0.257,0.2548,0.2568,0.2592,0.2579,0.2627,0.2646,0.2669,0.2725,0.2749,0.273,0.2845,0.2794,0.28,0.2818,0.2882,0.2898,0.2913,0.2722,0.2721,0.2721,0,0,0.2564,0.2554,0.2561,0.2572,0.2588,0.2597,0.2605,0.262,0.2636,0.2684,0.2684,0.2731,0.2772,0.2802,0.2818,0.2899,0.289,0.2902,0.2958,0.302,0.3035,0.3047,0.3081,0.3097,0.2905,0.2905,0.2905,0,0.2574,0.2573,0.2572,0.2587,0.26,0.261,0.2633,0.2659,0.2692,0.2724,0.2709,0.2803,0.2813,0.289,0.2916,0.2918,0.2942,0.2907,0.303,0.3043,0.3056,0.3087,0.3104,0.2908,0.2907,0.2907,0.2907,0,0.259,0.26,0.2611,0.263,0.2652,0.2675,0.2703,0.2742,0.2761,0.279,0.2874,0.2903,0.2963,0.2969,0.2964,0.3062,0.3046,0.303,0.2996,0.3075,0.3104,0.312,0.2912,0.2911,0.291,0.2909,0,0,0.2582,0.2615,0.2619,0.2636,0.2672,0.2691,0.275,0.2811,0.2862,0.291,0.2986,0.3044,0.307,0.3094,0.3101,0.315,0.3245,0.3131,0.3133,0.3152,0.3372,0.3185,0.3184,0.3247,0.3251,0.3254,0.3351,0,0.2598,0.2632,0.2646,0.2692,0.2715,0.2747,0.2806,0.2866,0.2923,0.3008,0.3061,0.3142,0.3115,0.3155,0.3204,0.3249,0.3294,0.322,0.3305,0.3308,0.3121,0.3199,0.2942,0.2991,0.3367,0.337,0.3372,0,0.26,0.2629,0.267,0.2728,0.2743,0.2781,0.2874,0.2928,0.3049,0.3096,0.3187,0.3237,0.3343,0.3297,0.3418,0.3373,0.3385,0.34,0.3403,0.3229,0.3152,0.2978,0.3007,0.3399,0.3397,0.3395,0.3393,0,0.2581,0.2637,0.2672,0.2687,0.2763,0.2804,0.2859,0.2966,0.3033,0.3173,0.3244,0.3359,0.3433,0.349,0.3509,0.349,0.3612,0.3587,0.3428,0.3414,0.3212,0.3173,0.367,0.367,0.3669,0.3669,0.3669,0,0.257,0.2594,0.2673,0.2687,0.2754,0.2812,0.2899,0.2971,0.3104,0.3186,0.3299,0.3376,0.3488,0.3557,0.3564,0.3535,0.366,0.3458,0.3436,0.3215,0.3177,0.3544,0.3528,0.3673,0.3672,0.3671,0.3671,0,0.2525,0.2569,0.261,0.2704,0.274,0.2786,0.2905,0.2979,0.3106,0.322,0.3277,0.3436,0.35,0.3559,0.3643,0.3584,0.3587,0.3534,0.3244,0.3184,0.3342,0.3328,0.3408,0.3402,0.3397,0.3393,0.339,0,0.2496,0.252,0.261,0.2636,0.2677,0.2759,0.2828,0.2965,0.3026,0.3223,0.3267,0.3401,0.3412,0.346,0.3394,0.3363,0.3465,0.3098,0.3003,0.3349,0.3321,0.3314,0.3306,0.2767,0.2759,0.2752,0.2747,0,0.2458,0.2493,0.2538,0.26,0.2663,0.2733,0.2825,0.2852,0.3001,0.3067,0.3135,0.3177,0.3217,0.3052,0.3015,0.2967,0.3082,0.2955,0.3439,0.2839,0.2743,0.2715,0.273,0.2687,0.2693,0.2697,0.2701,0.2703,0.2433,0.2455,0.2522,0.2555,0.2622,0.2668,0.2656,0.2725,0.2763,0.2785,0.2905,0.2847,0.2872,0.2653,0.2547,0.2471,0.2685,0.2583,0.2606,0.2635,0.251,0.2407,0.2265,0.2268,0.2271,0.2274,0.2276,0,0.2399,0.2428,0.247,0.2498,0.2499,0.259,0.2621,0.2554,0.2471,0.2531,0.2507,0.2277,0.2153,0.2178,0.1958,0.1925,0.194,0.1851,0.1871,0.193,0.1983,0.1826,0.14,0.1397,0.1394,0.1392,0,0,0.2393,0.24,0.2408,0.2361,0.2373,0.2343,0.2313,0.2225,0.2192,0.2047,0.1973,0.2096,0.2135,0.1763,0.1691,0.1511,0.172,0.1446,0.2153,0.224,0.229,0.2407,0.2232,0,0,0,0,0]},{"header":{"parameterUnit":"m.s-1","parameterCategory":2,"la1":30.2991,"la2":30.254,"lo1":-89.0895,"lo2":-89.0444,"dy":0.0017,"dx":0.0017,"nx":28,"ny":28,"refTime":"2025-07-07T09:00:00:Z","depth":"2","parameterNumber":3,"parameterNumberName":"V-component_of_CURRENTS"},"data":[0,0,0,0,0,0,0,0,0,0,0,0,0,0,0,0,0,0,0,0,0,0,0,0,0,0,0,0,0,0,0,0,0,0,0,0,0,0,0,0,0,0,0,0,0,0,0,0,0,0,0,0,0,0,0,0,0,0,0.0152,0.0153,0,0.0147,0.0147,0.0147,0.0131,0.0131,0.0131,0.013,0.0123,0.0123,0.0123,0,0,0,0,0,0,0,0,0,0,0,0,0,0.014,0.014,0.0152,0.0153,0.0153,0.0147,0.0147,0.0147,0.0131,0.0131,0.0131,0.013,0.0123,0.0123,0.0123,0,0,0,0,0,0,0,0,0,0,0,0,0,0.014,0.014,0.0152,0.0145,0.0144,0.0147,0.0147,0.0146,0.0131,0.0131,0.0131,0.013,0.0123,0.0123,0.0123,0.013,0,0,0.0123,0.0123,0,0,0,0,0,0,0,0,0.014,0.014,0.0146,0.0146,0.0145,0.014,0.0139,0.0141,0.0131,0.0135,0.013,0.013,0.013,0.0129,0.0127,0.0129,0.0129,0.0123,0.0123,0.0123,0.0123,0,0,0,0,0,0,0,0.014,0.014,0.0149,0.0146,0.0145,0.0139,0.0138,0.014,0.0133,0.0135,0.0134,0.0135,0.0129,0.0127,0.0127,0.0129,0.0123,0.0123,0.0123,0.0123,0.016,0.016,0,0,0,0,0,0,0.0144,0.014,0.0149,0.0149,0.0143,0.0139,0.0139,0.0141,0.0133,0.0132,0.0135,0.0135,0.0127,0.0127,0.0126,0.0161,0.0123,0.0123,0.0123,0.0159,0.016,0.0161,0,0,0,0,0,0,0.0144,0.0145,0.015,0.0145,0.0146,0.014,0.0143,0.0141,0.0143,0.0134,0.0133,0.0139,0.0127,0.0126,0.014,0.016,0.0123,0.0123,0.0157,0.0159,0.016,0.0214,0,0,0,0,0,0,0.0143,0.0145,0.0148,0.0146,0.0146,0.0159,0.0143,0.0141,0.0145,0.0144,0.0137,0.0136,0.0127,0.014,0.014,0.0159,0.0123,0.0156,0.0158,0.016,0.0211,0.0217,0.0222,0,0,0,0,0,0.0143,0.0151,0.0148,0.0149,0.015,0.016,0.0159,0.0153,0.0146,0.0152,0.0151,0.0136,0.0152,0.0141,0.0141,0.016,0.0155,0.0158,0.016,0.0208,0.0216,0.0222,0,0,0,0,0,0,0.0143,0.015,0.0147,0.0155,0.016,0.0158,0.0164,0.0158,0.0162,0.0162,0.015,0.0149,0.0165,0.0158,0.0147,0.0176,0.0151,0.0153,0.0188,0.0194,0.02,0.0222,0.0123,0,0,0,0,0,0.0146,0.0155,0.0159,0.0165,0.0171,0.0169,0.0171,0.0169,0.0171,0.0172,0.0171,0.017,0.0174,0.018,0.0179,0.0199,0.0187,0.0211,0.0217,0.0222,0.024,0.0237,0.0244,0.0168,0.0168,0.0168,0,0,0.0147,0.0153,0.0156,0.0166,0.0171,0.0192,0.0169,0.018,0.02,0.0172,0.02,0.0188,0.0182,0.0202,0.021,0.02,0.0234,0.0224,0.0229,0.0244,0.024,0.0247,0.0254,0.0169,0.0169,0.0169,0,0,0.0164,0.0162,0.0181,0.0192,0.0204,0.0207,0.0214,0.022,0.0226,0.0247,0.0232,0.024,0.0244,0.025,0.0251,0.029,0.026,0.0282,0.0336,0.0333,0.0339,0.0344,0.0327,0.0331,0.0291,0.0291,0.0291,0,0.0167,0.0193,0.0187,0.0213,0.0231,0.022,0.0252,0.0257,0.0267,0.0285,0.0264,0.0285,0.0272,0.0307,0.0317,0.0304,0.0289,0.0309,0.034,0.0345,0.035,0.0331,0.0334,0.0294,0.0294,0.0293,0.0293,0,0.0204,0.0226,0.0241,0.0273,0.0289,0.0314,0.0325,0.0343,0.0345,0.0352,0.0382,0.0366,0.0385,0.0373,0.0356,0.0389,0.0362,0.0342,0.0323,0.0361,0.0338,0.0341,0.0298,0.0297,0.0296,0.0295,0,0,0.0216,0.026,0.0267,0.0301,0.0327,0.035,0.0386,0.0424,0.0463,0.0457,0.051,0.0498,0.0489,0.0491,0.0469,0.0462,0.0468,0.042,0.0419,0.0404,0.045,0.0401,0.0399,0.0448,0.0449,0.045,0.0417,0,0.0254,0.0317,0.0327,0.0394,0.0435,0.0443,0.0487,0.0515,0.053,0.0576,0.0562,0.0597,0.0535,0.0553,0.0535,0.0495,0.0479,0.0479,0.0416,0.0414,0.0367,0.0402,0.041,0.0378,0.0419,0.0419,0.0419,0,0.0297,0.0339,0.0408,0.048,0.0499,0.0535,0.0611,0.0649,0.0694,0.0708,0.0727,0.0717,0.0727,0.0662,0.0609,0.061,0.0539,0.0489,0.0486,0.0429,0.0371,0.0349,0.0381,0.0423,0.0422,0.0422,0.0422,0,0.033,0.0399,0.0461,0.0483,0.0556,0.0597,0.0642,0.0694,0.0759,0.0804,0.0854,0.0836,0.0862,0.0773,0.0661,0.0644,0.0583,0.0548,0.0432,0.0427,0.0418,0.041,0.0503,0.0503,0.0503,0.0503,0.0503,0,0.0377,0.0428,0.0485,0.0524,0.0618,0.065,0.0749,0.0789,0.0874,0.0971,0.0936,0.0999,0.0891,0.0841,0.0709,0.0581,0.0619,0.0455,0.0424,0.0434,0.0429,0.0456,0.0451,0.0502,0.0502,0.0502,0.0502,0,0.0409,0.0439,0.0522,0.0606,0.0639,0.0711,0.0835,0.0918,0.0976,0.1104,0.1136,0.1147,0.1075,0.0932,0.0795,0.0664,0.0529,0.0463,0.0472,0.0443,0.0361,0.0359,0.0355,0.0353,0.0351,0.035,0.0349,0,0.0432,0.0476,0.0581,0.0643,0.0686,0.0789,0.088,0.0968,0.1062,0.1194,0.1271,0.1253,0.123,0.0999,0.0774,0.0541,0.0505,0.0387,0.0354,0.038,0.035,0.0351,0.0351,0.0358,0.0357,0.0357,0.0356,0,0.0487,0.0519,0.0591,0.0715,0.0814,0.0934,0.1061,0.115,0.1271,0.135,0.1442,0.1435,0.1246,0.102,0.0712,0.055,0.0424,0.0363,0.0412,0.0387,0.0379,0.0351,0.0352,0.0349,0.035,0.0351,0.0351,0.0351,0.053,0.0591,0.0685,0.0799,0.0919,0.1073,0.1171,0.1296,0.1434,0.1561,0.1544,0.1509,0.129,0.0884,0.0623,0.0359,0.0385,0.0275,0.028,0.0285,0.0284,0.0272,0.0223,0.0223,0.0222,0.0222,0.0222,0,0.059,0.0656,0.0766,0.0908,0.1038,0.1104,0.1291,0.1377,0.1509,0.1601,0.1629,0.1373,0.1138,0.0874,0.049,0.0257,0.0247,0.0164,0.0212,0.0221,0.0228,0.0226,0.0148,0.0147,0.0146,0.0145,0,0,0.0627,0.0729,0.078,0.0977,0.1085,0.1263,0.1369,0.1488,0.1569,0.1605,0.1572,0.1534,0.1218,0.0913,0.0606,0.0383,0.0351,0.0327,0.0413,0.0516,0.0525,0.0318,0.0328,0,0,0,0,0]}],[{"header":{"parameterUnit":"m.s-1","parameterCategory":2,"la1":30.2991,"la2":30.254,"lo1":-89.0895,"lo2":-89.0444,"dy":0.0017,"dx":0.0017,"nx":28,"ny":28,"refTime":"2025-07-07T09:00:00:Z","depth":"4","parameterNumber":2,"parameterNumberName":"U-component_of_CURRENTS"},"data":[0,0,0,0,0,0,0,0,0,0,0,0,0,0,0,0,0,0,0,0,0,0,0,0,0,0,0,0,0,0,0,0,0,0,0,0,0,0,0,0,0,0,0,0,0,0,0,0,0,0,0,0,0,0,0,0,0,0,0.1579,0.158,0,0.1609,0.1609,0.1609,0.1649,0.165,0.1651,0.1652,0.1676,0.1676,0.1676,0,0,0,0,0,0,0,0,0,0,0,0,0,0.1548,0.1548,0.1579,0.158,0.158,0.1609,0.1609,0.1609,0.1649,0.165,0.1651,0.1652,0.1676,0.1676,0.1676,0,0,0,0,0,0,0,0,0,0,0,0,0,0.1565,0.1548,0.1579,0.1606,0.1609,0.1609,0.1609,0.1609,0.1648,0.165,0.1651,0.1653,0.1677,0.1676,0.1676,0.1644,0,0,0.1675,0.1674,0,0,0,0,0,0,0,0,0.1564,0.1566,0.1601,0.1604,0.1608,0.163,0.1607,0.1622,0.1648,0.163,0.1652,0.1653,0.1661,0.1662,0.166,0.1645,0.1646,0.1675,0.1674,0.1674,0.1674,0,0,0,0,0,0,0,0.1563,0.1564,0.1587,0.1602,0.1606,0.1614,0.1618,0.161,0.1634,0.1632,0.1635,0.1644,0.1663,0.166,0.1661,0.1647,0.1675,0.1674,0.1674,0.1674,0.1734,0.1736,0,0,0,0,0,0,0.1565,0.1563,0.1587,0.1589,0.1593,0.1614,0.1618,0.1618,0.1635,0.164,0.1642,0.1645,0.166,0.1661,0.1662,0.1717,0.1674,0.1674,0.1674,0.1732,0.1735,0.1737,0,0,0,0,0,0,0.1564,0.1566,0.1585,0.158,0.1584,0.1613,0.1613,0.1618,0.1653,0.1644,0.1648,0.1677,0.1661,0.1662,0.1685,0.1715,0.1674,0.1673,0.173,0.1733,0.1736,0.1768,0,0,0,0,0,0,0.1562,0.1565,0.1582,0.158,0.1584,0.1606,0.1612,0.1618,0.1655,0.166,0.1673,0.1675,0.1662,0.1686,0.1685,0.1713,0.1673,0.1728,0.1732,0.1735,0.1764,0.1771,0.1777,0,0,0,0,0,0.1561,0.1569,0.1582,0.1587,0.1601,0.1607,0.161,0.1634,0.1656,0.167,0.1684,0.1677,0.1708,0.1686,0.1684,0.1714,0.1726,0.1731,0.1735,0.1761,0.177,0.1777,0,0,0,0,0,0,0.1567,0.1574,0.1589,0.1601,0.1617,0.1616,0.1634,0.1653,0.1674,0.169,0.1684,0.1686,0.1723,0.1716,0.1693,0.1746,0.1722,0.1726,0.1743,0.1751,0.1757,0.1776,0.1673,0,0,0,0,0,0.1576,0.1584,0.1594,0.1609,0.1617,0.1634,0.1648,0.1665,0.1677,0.169,0.1702,0.1719,0.1731,0.174,0.1748,0.1764,0.1777,0.179,0.1796,0.1801,0.1819,0.1868,0.188,0.175,0.175,0.175,0,0,0.1584,0.159,0.1598,0.1612,0.1624,0.1635,0.1645,0.1672,0.1694,0.1687,0.1727,0.174,0.1743,0.1767,0.1784,0.1768,0.1843,0.1806,0.181,0.1825,0.1874,0.1886,0.1897,0.1753,0.1752,0.1752,0,0,0.1587,0.1609,0.1612,0.1626,0.1652,0.166,0.1677,0.1698,0.1724,0.1756,0.1765,0.1802,0.1814,0.1826,0.183,0.1879,0.1878,0.1888,0.1928,0.1975,0.1986,0.1996,0.2013,0.2024,0.1887,0.1887,0.1887,0,0.1604,0.1604,0.1618,0.1624,0.1642,0.1674,0.1688,0.1711,0.1744,0.1767,0.178,0.1842,0.1844,0.188,0.1901,0.1893,0.1912,0.1891,0.1983,0.1993,0.2002,0.2018,0.203,0.1889,0.1889,0.1889,0.1889,0,0.1593,0.1614,0.1618,0.1636,0.1657,0.1676,0.1706,0.1747,0.179,0.181,0.1878,0.1897,0.1937,0.1947,0.1935,0.2006,0.1994,0.1985,0.1958,0.2017,0.203,0.2041,0.1892,0.1891,0.1891,0.189,0,0,0.1581,0.1607,0.1614,0.1628,0.1669,0.168,0.1731,0.1773,0.1815,0.1871,0.1932,0.1971,0.2004,0.2016,0.2024,0.2067,0.2139,0.206,0.2061,0.2068,0.2233,0.206,0.2055,0.2149,0.2151,0.2153,0.2208,0,0.1576,0.1583,0.1607,0.1637,0.1642,0.17,0.1736,0.1787,0.1843,0.1909,0.1967,0.203,0.2022,0.2066,0.2105,0.2142,0.2175,0.2124,0.2183,0.2185,0.2017,0.2065,0.2162,0.2217,0.2219,0.2221,0.2223,0,0.1548,0.1562,0.158,0.1631,0.1643,0.1677,0.1757,0.1802,0.1894,0.1945,0.2028,0.2079,0.2168,0.2159,0.2251,0.2222,0.2235,0.2255,0.2257,0.2096,0.2034,0.2152,0.2244,0.2242,0.2241,0.2239,0.2238,0,0.1496,0.1543,0.156,0.1576,0.1636,0.168,0.1733,0.1816,0.1867,0.1997,0.2062,0.2153,0.2229,0.2282,0.232,0.2306,0.2408,0.2385,0.2236,0.2224,0.2349,0.2338,0.2449,0.2449,0.2449,0.2449,0.2449,0,0.1452,0.1474,0.1546,0.1549,0.1593,0.1659,0.1724,0.1795,0.191,0.1964,0.2089,0.2151,0.2272,0.2335,0.2354,0.2322,0.2433,0.2254,0.2233,0.2358,0.2348,0.2355,0.2344,0.2451,0.245,0.245,0.245,0,0.1381,0.1424,0.1447,0.1526,0.156,0.1598,0.1716,0.1754,0.1892,0.1984,0.2045,0.2184,0.2263,0.2341,0.2422,0.2342,0.2349,0.2305,0.243,0.2413,0.2125,0.2115,0.2151,0.2145,0.2141,0.2137,0.2133,0,0.1337,0.1337,0.1417,0.1438,0.1482,0.1556,0.159,0.1726,0.1773,0.1971,0.1997,0.2145,0.2212,0.2194,0.2275,0.2293,0.226,0.2235,0.2183,0.2122,0.2099,0.2096,0.2092,0.2126,0.2125,0.2124,0.2122,0,0.1252,0.1292,0.1311,0.1357,0.1399,0.1435,0.1513,0.1543,0.1695,0.1841,0.1915,0.1973,0.2041,0.2089,0.2113,0.2119,0.2242,0.2186,0.2195,0.2146,0.2092,0.2073,0.2075,0.2106,0.2108,0.211,0.2111,0,0.1194,0.1186,0.122,0.1252,0.1306,0.1309,0.1358,0.1416,0.1488,0.1716,0.1724,0.1883,0.2013,0.1997,0.2021,0.2015,0.1982,0.1904,0.1928,0.1946,0.1851,0.175,0.1649,0,0,0,0,0,0.1137,0.1105,0.1114,0.1132,0.1189,0.1227,0.13,0.1355,0.1509,0.1513,0.1624,0.1687,0.1743,0.1814,0.1767,0.1911,0.1977,0.1844,0.1896,0.2016,0.2035,0.1939,0,0,0,0,0,0,0.1085,0.1085,0.1068,0.1037,0.1051,0.1086,0.1133,0.1227,0.1237,0.1413,0.1453,0.1581,0.1659,0.1773,0.1744,0.1761,0.1752,0.1938,0.1932,0.2006,0.2023,0.2038,0.1946,0,0,0,0,0]},{"header":{"parameterUnit":"m.s-1","parameterCategory":2,"la1":30.2991,"la2":30.254,"lo1":-89.0895,"lo2":-89.0444,"dy":0.0017,"dx":0.0017,"nx":28,"ny":28,"refTime":"2025-07-07T09:00:00:Z","depth":"4","parameterNumber":3,"parameterNumberName":"V-component_of_CURRENTS"},"data":[0,0,0,0,0,0,0,0,0,0,0,0,0,0,0,0,0,0,0,0,0,0,0,0,0,0,0,0,0,0,0,0,0,0,0,0,0,0,0,0,0,0,0,0,0,0,0,0,0,0,0,0,0,0,0,0,0,0,0.0057,0.0057,0,0.0052,0.0052,0.0051,0.0041,0.0041,0.0041,0.0041,0.0028,0.0028,0.0028,0,0,0,0,0,0,0,0,0,0,0,0,0,0.0048,0.0048,0.0057,0.0057,0.0057,0.0052,0.0052,0.0051,0.0041,0.0041,0.0041,0.0041,0.0028,0.0028,0.0028,0,0,0,0,0,0,0,0,0,0,0,0,0,0.0047,0.0048,0.0057,0.0052,0.0052,0.0052,0.0052,0.0051,0.0041,0.0041,0.0041,0.0041,0.0028,0.0028,0.0028,0.0028,0,0,0.0027,0.0026,0,0,0,0,0,0,0,0,0.0047,0.0047,0.0053,0.0053,0.0052,0.0048,0.0044,0.0044,0.0041,0.0044,0.0041,0.004,0.0035,0.0034,0.0032,0.0028,0.0027,0.0026,0.0026,0.0026,0.0026,0,0,0,0,0,0,0,0.0047,0.0047,0.0054,0.0053,0.0053,0.0047,0.0046,0.0044,0.0039,0.0044,0.0043,0.0044,0.0034,0.0032,0.0031,0.0027,0.0026,0.0026,0.0026,0.0026,0.0032,0.0033,0,0,0,0,0,0,0.0051,0.0048,0.0054,0.0054,0.0051,0.0047,0.0047,0.0048,0.004,0.0038,0.0045,0.0044,0.0033,0.0032,0.0031,0.0049,0.0026,0.0026,0.0026,0.0032,0.0033,0.0033,0,0,0,0,0,0,0.0051,0.0052,0.0054,0.0051,0.0051,0.0048,0.005,0.0048,0.005,0.004,0.0039,0.0048,0.0033,0.0031,0.0036,0.0047,0.0026,0.0025,0.0032,0.0032,0.0033,0.0073,0,0,0,0,0,0,0.0051,0.0052,0.0054,0.0052,0.0052,0.006,0.005,0.0049,0.0051,0.005,0.0043,0.0041,0.0032,0.0037,0.0036,0.0046,0.0025,0.0031,0.0032,0.0033,0.0071,0.0074,0.0078,0,0,0,0,0,0.005,0.0055,0.0054,0.0055,0.0055,0.0061,0.006,0.0056,0.0052,0.0056,0.0052,0.0041,0.004,0.0037,0.0035,0.0046,0.0031,0.0032,0.0033,0.0069,0.0074,0.0078,0,0,0,0,0,0,0.005,0.0055,0.0053,0.0059,0.0062,0.006,0.0063,0.006,0.006,0.0059,0.0048,0.0047,0.0052,0.0044,0.0041,0.005,0.0033,0.0034,0.0061,0.0066,0.0069,0.0075,0.0025,0,0,0,0,0,0.0052,0.0058,0.0061,0.0065,0.0069,0.0067,0.0068,0.0067,0.0066,0.0066,0.0062,0.0057,0.0054,0.0057,0.005,0.006,0.004,0.0064,0.0068,0.0071,0.0075,0.0059,0.0062,0.0036,0.0036,0.0036,0,0,0.0052,0.0056,0.0059,0.0066,0.0068,0.0081,0.0067,0.0074,0.0086,0.0065,0.008,0.0068,0.0058,0.0066,0.0068,0.0063,0.0066,0.0072,0.0075,0.0077,0.006,0.0063,0.0065,0.0037,0.0036,0.0036,0,0,0.0062,0.0062,0.0073,0.0081,0.0089,0.0091,0.0095,0.0098,0.0101,0.0112,0.0098,0.0097,0.0096,0.0092,0.009,0.0109,0.0082,0.0105,0.0133,0.0118,0.012,0.0122,0.0093,0.0091,0.0111,0.0111,0.0111,0,0.0063,0.008,0.0077,0.0094,0.0107,0.0099,0.0121,0.0122,0.0126,0.0133,0.0123,0.0122,0.011,0.0122,0.0125,0.0118,0.0098,0.012,0.0123,0.0124,0.0125,0.0095,0.0093,0.0113,0.0113,0.0113,0.0113,0,0.0086,0.0102,0.011,0.0132,0.0143,0.0159,0.0166,0.0177,0.0178,0.0176,0.0186,0.017,0.0171,0.0164,0.015,0.0155,0.0133,0.0125,0.0113,0.013,0.0097,0.0094,0.0116,0.0115,0.0115,0.0114,0,0,0.0091,0.0121,0.0126,0.0149,0.0168,0.0184,0.0206,0.0226,0.0245,0.0238,0.0259,0.0245,0.023,0.0226,0.0208,0.0192,0.0174,0.0163,0.0161,0.0136,0.0128,0.0121,0.0117,0.0165,0.0165,0.0165,0.0099,0,0.0115,0.0156,0.0165,0.021,0.0238,0.0245,0.0272,0.0285,0.0288,0.0303,0.0284,0.0294,0.0256,0.0261,0.0238,0.0193,0.017,0.0192,0.0114,0.0111,0.0105,0.0115,0.0165,0.0097,0.0096,0.0096,0.0095,0,0.0139,0.0169,0.0216,0.0267,0.028,0.0305,0.0349,0.0373,0.0382,0.0383,0.0378,0.0358,0.0341,0.0308,0.0236,0.025,0.0192,0.015,0.0146,0.0126,0.0101,0.0078,0.009,0.009,0.0091,0.0091,0.0092,0,0.0157,0.0207,0.025,0.0266,0.0317,0.0345,0.0376,0.0398,0.0432,0.0437,0.0453,0.0417,0.0412,0.0339,0.0244,0.0242,0.0153,0.0142,0.0078,0.0076,0.0083,0.0082,0.0089,0.0089,0.0089,0.0089,0.0089,0,0.0184,0.022,0.0264,0.0291,0.0355,0.038,0.0442,0.0461,0.0498,0.0538,0.05,0.0511,0.0419,0.0357,0.0262,0.0159,0.0165,0.0084,0.0064,0.01,0.0102,0.008,0.008,0.0087,0.0087,0.0088,0.0088,0,0.0199,0.0223,0.0282,0.0343,0.0366,0.0417,0.05,0.0544,0.0567,0.0618,0.0629,0.0587,0.0509,0.0401,0.0278,0.0192,0.0091,0.0049,0.0087,0.007,0.0017,0.0019,-0.0018,-0.0019,-0.0019,-0.002,-0.002,0,0.021,0.0238,0.0318,0.0362,0.0394,0.047,0.0526,0.0578,0.0623,0.066,0.0683,0.0633,0.0586,0.0407,0.0282,0.0108,0.0079,0.0013,0.0022,0.0024,0.0008,0.0012,0.0015,-0.0021,-0.0021,-0.0021,-0.0022,0,0.0236,0.0261,0.031,0.0398,0.0465,0.0546,0.0623,0.0661,0.0718,0.0738,0.0735,0.0654,0.0563,0.0417,0.0281,0.0152,0.0052,0.0006,0.0007,0.0015,0.0019,0.0005,0.0009,-0.0024,-0.0023,-0.0023,-0.0023,0,0.0255,0.0292,0.0354,0.0434,0.0518,0.0596,0.0639,0.0695,0.0743,0.0777,0.0767,0.0675,0.0623,0.0439,0.031,0.0189,0.0159,0.0104,0.0099,0.01,0.0151,0.0175,0.0167,0,0,0,0,0,0.0279,0.0317,0.0387,0.0473,0.0557,0.0609,0.0693,0.0728,0.077,0.0779,0.0781,0.0698,0.053,0.0451,0.0333,0.0287,0.0125,0.014,0.0056,-0.0034,-0.0032,0.0008,0,0,0,0,0,0,0.0293,0.0354,0.0383,0.0488,0.0553,0.0648,0.0705,0.0738,0.0741,0.0763,0.0678,0.0652,0.0487,0.0603,0.0327,0.0291,0.0215,0.0068,0.0065,-0.0036,-0.0034,-0.0032,0.0011,0,0,0,0,0]}]]